Location: ???????
(55.4362°N, 38.1183°E)
Time: 18:25:59
(UTC+00:00)

Cosmos 1763 Rocket - Pass Details

Date: 17 June 2021
Orbit: 732 x 781 km, 74.0° (Epoch: 29 July)

Event Time Altitude Azimuth Distance (km) Brightness Sun altitude
Exits shadow 23:15:34 10° 209° (SSW) 2,255 5.2 -7.9°
Reaches altitude 10° 23:15:37 10° 209° (SSW) 2,240 5.2 -7.9°
Maximum altitude 23:20:41 85° 296° (WNW) 753 3.5 -7.6°
Drops below altitude 10° 23:25:52 10° 27° (NNE) 2,281 7.8 -7.3°
Sets 23:28:16 0° 28° (NNE) 3,217 9.5 -7.1°
